Каракол

Киргизия     42°29′28″N   78°23′58″E
темп.,
°C
ветер,
м/с
пор.,
м/с
влажн.,
%
обл.,
%
осадки,
мм/ч
давл.,
гПа
погр.,
м
19 апреля, пн
пн1900:00+5ююв1263100 0.5 101821
03:00+4юз2271100 0.1 102079
06:00+2зсз2296100 1.0 1022224
09:00+1сз11100100 7.2 102486
12:00+6с227742 7.6 1020664
15:00+8ссз336014 0.1 10171168
18:00+8с1258100 0.2 1016587
21:00+5юв1167100 0.1 101712
20 апреля, вт
вт2000:00+5юз1165100 0.1 101611
03:00+4юв12665 0.0 101512
06:00+3ю125660 0.0 101411
09:00+6сз21545 0.0 1013359
12:00+10сз3246100 0.0 10101098
15:00+11сз4341100 0.3 10091129
18:00+9ссв1144100 0.4 1008507
21:00+7всв1154100 0.0 100918
21 апреля, ср
ср2100:00+6ссз1266100 0.0 100935
03:00+5юв2274100 0.1 100878
06:00+3ссз117633 0.1 100812
09:00+6ссз3267100 0.0 1008440
12:00+10сз4353100 0.1 10061146
15:00+11зсз8748100 0.7 10051725
18:00+6зсз4661100 1.3 10111103
21:00+4юв0361100 0.2 1014562
22 апреля, чт
чт2200:00+3св2275100 0.4 1015177
03:000ссв2396100 1.5 1018284
06:00−1св3498100 3.8 1020242
09:00−1св3497100 3.3 1021301
12:00−1св4599100 8.4 1022330
15:00−1св4496100 2.6 1023411
18:00−3всв5592100 3.5 1026373
21:00−4в2493100 3.4 1029183
23 апреля, пт
пт2300:00−5в2394100 4.9 1030177
03:00−6всв1395100 3.3 1031213
06:00−7вюв2394100 4.9 1033115
09:00−5ссв238125 0.1 1032318
12:00−2ссв218550 0.1 1030480
15:00−1сз13771 0.1 1027495
18:00−1св01832 0.1 102773
21:00−6ююв54630 0.0 103335